Regional Weather Roundup
Issued by NWS Goodland, KS

Home | Current Version | Previous Version | Graphics & Text | Print | Product List | Glossary On
Versions: 1 2 3 4 5 6 7 8 9 10 11 12 13 14 15 16 17 18 19 20 21 22 23 24 25 26 27 28 29 30 31 32 33 34 35 36 37 38 39 40 41 42 43 44 45 46 47 48 49 50
000
ASUS43 KGLD 232159
RWRGLD

GOODLAND FORECAST AREA HOURLY WEATHER ROUNDUP
NATIONAL WEATHER SERVICE GOODLAND KS
300 PM MST MON JAN 23 2017

...OFFICIAL OBSERVATIONS...

CITY           SKY/WX    TMP DP  RH WIND       PRES   REMARKS
GOODLAND KS    SUNNY     56  28  34 E5        29.54F
HILL CITY KS   SUNNY     57  31  37 S14       29.59F
IMPERIAL NEB   SUNNY     47  27  45 CALM      29.56S
MCCOOK NEB     SUNNY     54  31  41 S9        29.57F
AKRON CO       CLOUDY    47  21  35 E8        29.53S
BURLINGTON CO  SUNNY     56  30  37 E9        29.53F
LIMON CO       SUNNY     53  18  25 SW23G33   29.52S
$$

...UNOFFICIAL OBSERVATIONS...

CITY           SKY/WX    TMP DP  RH WIND       PRES   REMARKS
LENORA KS        N/A     55  32  41 SE9         N/A
NORTON KS      SUNNY     54  27  35 SE9       29.59
SHARON SPRINGS   N/A     61  37  40 SW8G17      N/A
TRENTON NEB      N/A     54  32  43 CALM        N/A
KIT CARSON CO    N/A     59  28  30 MISG        N/A
YUMA CO        FAIR      45  28  53 NE8       29.54S
$$



USA.gov is the U.S. government's official web portal to all federal, state and local government web resources and services.